This is the latest recevied weather packets stored in our database for station/object SV3AQT-13. If no packets are shown the sender has not sent any weather packets the latest 10 day(s).
| Time | Temp. | Humidity | Pressure | Rain* | Wind** | Luminosity | Snow |
|---|---|---|---|---|---|---|---|
| 1788610082 | 30.56° C | 65% | 1019.3 hPa | 0 mm | 1.34 m/s, 55° | - | - |
| 1788609903 | 30.56° C | 66% | 1019.3 hPa | 0 mm | 1.79 m/s, 74° | - | - |
| 1788609722 | 30.56° C | 66% | 1019.3 hPa | 0 mm | 1.79 m/s, 77° | - | - |
| 1788609543 | 31.11° C | 66% | 1019.3 hPa | 0 mm | 0.89 m/s, 72° | - | - |
| 1788609362 | 31.11° C | 65% | 1019.3 hPa | 0 mm | 1.79 m/s, 78° | - | - |
| 1788609183 | 31.11° C | 64% | 1019.3 hPa | 0 mm | 1.34 m/s, 74° | - | - |
| 1788609002 | 31.67° C | 64% | 1019.3 hPa | 0 mm | 0 m/s | - | - |
| 1788608822 | 31.67° C | 63% | 1019.6 hPa | 0 mm | 0.45 m/s, 80° | - | - |
| 1788608642 | 31.67° C | 63% | 1019.6 hPa | 0 mm | 0.89 m/s, 75° | - | - |
| 1788608463 | 31.67° C | 64% | 1019.6 hPa | 0 mm | 0.45 m/s, 81° | - | - |
| 1788608283 | 31.67° C | 63% | 1019.6 hPa | 0 mm | 0.89 m/s, 79° | - | - |
| 1788608102 | 31.67° C | 62% | 1019.6 hPa | 0 mm | 0 m/s | - | - |
| 1788607922 | 31.67° C | 60% | 1019.6 hPa | 0 mm | 1.34 m/s, 76° | - | - |
| 1788607743 | 31.67° C | 62% | 1019.6 hPa | 0 mm | 0.45 m/s, 74° | - | - |
| 1788607562 | 31.11° C | 61% | 1019.6 hPa | 0 mm | 1.34 m/s, 83° | - | - |
| 1788607385 | 31.11° C | 63% | 1019.6 hPa | 0 mm | 1.34 m/s, 84° | - | - |
| 1788607203 | 31.11° C | 62% | 1019.6 hPa | 0 mm | 1.34 m/s, 67° | - | - |
| 1788607025 | 31.11° C | 64% | 1019.6 hPa | 0 mm | 1.34 m/s, 61° | - | - |
| 1788606843 | 30.56° C | 62% | 1019.6 hPa | 0 mm | 1.34 m/s, 66° | - | - |
| 1788606662 | 30.56° C | 62% | 1019.6 hPa | 0 mm | 1.34 m/s, 75° | - | - |
| 1788606482 | 30.56° C | 63% | 1019.6 hPa | 0 mm | 1.79 m/s, 76° | - | - |
| 1788606302 | 30° C | 62% | 1019.6 hPa | 0 mm | 2.24 m/s, 66° | - | - |
| 1788606122 | 30° C | 63% | 1019.6 hPa | 0 mm | 2.68 m/s, 73° | - | - |
| 1788605942 | 30° C | 65% | 1019.6 hPa | 0 mm | 2.24 m/s, 62° | - | - |
| 1788605762 | 30° C | 67% | 1019.6 hPa | 0 mm | 2.24 m/s, 65° | - | - |
* Rain latest hour (hover to see other rain measurements)
** Current wind speed in m/s (hover to see current wind gust speed)